Location: El Manguito
(10.2358°N, 67.3634°W)
Time: 20:21:36
(UTC+00:00)

Aurora 2 Rocket - Pass Details

Date: 10 December 2024
Orbit: 386 x 1590 km, 25.0° (Epoch: 12 January)

Event Time Altitude Azimuth Distance (km) Brightness Sun altitude
Exits shadow 08:24:14 34° 37° (NE) 1,375 4.3 -31.1°
Drops below altitude 10° 08:27:59 10° 80° (E) 2,204 6.1 -30.2°
Sets 08:30:13 0° 89° (E) 2,955 7.0 -29.7°
